When you browse on this site, cookies collect data to enhance your experience and personalize the content and advertising you see.
Visit our Privacy Policy to learn more. By continuing to use the site, you agree to this use of cookies and data.
  • en France
  • Liste des pays
  • À 7 jours
  • Température de l'eau
  • Carte satellitaire
  • Carte météo
  • Widgets météo
  • user-avatar
    Se connecter

    Météo par heure à Chernobozhe

    Ce jour, 20 Novembre, Mardi

    Heure Température Précipitation Vent Pression Humidité
    00:00 -3°C° 0 mm 1 m/s 770 mmHg 86%
    01:00 -3°C° 0 mm 1 m/s 770 mmHg 86%
    02:00 -4°C° 0 mm 0 m/s 770 mmHg 87%
    03:00 -4°C° 0 mm 0 m/s 770 mmHg 87%
    04:00 -3°C° 0 mm 1 m/s 769 mmHg 86%
    05:00 -3°C° 0 mm 1 m/s 769 mmHg 85%
    06:00 -3°C° 0 mm 1 m/s 769 mmHg 84%
    07:00 -3°C° 0 mm 1 m/s 768 mmHg 83%
    08:00 -4°C° 0 mm 0 m/s 768 mmHg 82%
    09:00 -2°C° 0 mm 1 m/s 768 mmHg 78%
    10:00 -1°C° 0 mm 1 m/s 767 mmHg 73%
    11:00 0°C° 0 mm 1 m/s 767 mmHg 68%
    12:00 0°C° 0 mm 1 m/s 767 mmHg 68%
    13:00 -2°C° 0 mm 2 m/s 766 mmHg 67%
    14:00 -1°C° 0 mm 2 m/s 766 mmHg 66%
    15:00 -2°C° 0 mm 2 m/s 766 mmHg 71%
    16:00 -3°C° 0 mm 2 m/s 766 mmHg 75%
    17:00 -3°C° 0 mm 2 m/s 765 mmHg 79%
    18:00 -3°C° 0 mm 2 m/s 765 mmHg 81%
    19:00 -3°C° 0 mm 2 m/s 765 mmHg 83%
    20:00 -3°C° 0 mm 2 m/s 765 mmHg 85%
    21:00 -3°C° 0 mm 2 m/s 765 mmHg 87%
    22:00 -3°C° 0 mm 2 m/s 765 mmHg 90%
    23:00 -3°C° 0 mm 2 m/s 765 mmHg 93%

    Demain, 21 Novembre, Mercredi

    Heure Température Précipitation Vent Pression Humidité
    00:00 -3°C° 0 mm 2 m/s 765 mmHg 93%
    01:00 -3°C° 0 mm 2 m/s 765 mmHg 94%
    02:00 -3°C° 0 mm 2 m/s 765 mmHg 94%
    03:00 -2°C° 0 mm 2 m/s 765 mmHg 94%
    04:00 -2°C° 0 mm 2 m/s 765 mmHg 93%
    05:00 -1°C° 0 mm 2 m/s 765 mmHg 92%
    06:00 -2°C° 0 mm 2 m/s 766 mmHg 93%
    07:00 -2°C° 0 mm 2 m/s 766 mmHg 93%
    08:00 -2°C° 0 mm 2 m/s 766 mmHg 93%
    09:00 -2°C° 0 mm 2 m/s 766 mmHg 91%
    10:00 -1°C° 0 mm 2 m/s 766 mmHg 89%
    11:00 -1°C° 0 mm 2 m/s 766 mmHg 87%
    12:00 +1°C° 0 mm 1 m/s 766 mmHg 87%
    13:00 +1°C° 0 mm 1 m/s 766 mmHg 87%
    14:00 +1°C° 0 mm 1 m/s 766 mmHg 87%
    15:00 0°C° 0 mm 1 m/s 766 mmHg 89%
    16:00 -3°C° 0 mm 2 m/s 766 mmHg 91%
    17:00 -3°C° 0 mm 2 m/s 766 mmHg 93%
    18:00 -4°C° 0 mm 2 m/s 765 mmHg 92%
    19:00 -4°C° 0 mm 2 m/s 765 mmHg 92%
    20:00 -4°C° 0 mm 2 m/s 765 mmHg 91%
    21:00 -4°C° 0 mm 2 m/s 765 mmHg 91%
    22:00 -4°C° 0 mm 2 m/s 765 mmHg 91%
    23:00 -4°C° 0 mm 2 m/s 765 mmHg 91%

    Après-demain, 22 Novembre, Jeudi

    Heure Température Précipitation Vent Pression Humidité
    00:00 -4°C° 0 mm 2 m/s 765 mmHg 91%
    01:00 -4°C° 0 mm 2 m/s 764 mmHg 91%
    02:00 -4°C° 0 mm 2 m/s 764 mmHg 91%
    03:00 -3°C° 0 mm 2 m/s 764 mmHg 92%
    04:00 -4°C° 0 mm 3 m/s 763 mmHg 92%
    05:00 -4°C° 0 mm 3 m/s 763 mmHg 92%
    06:00 -4°C° 0 mm 3 m/s 763 mmHg 91%
    07:00 -4°C° 0 mm 3 m/s 762 mmHg 90%
    08:00 -4°C° 0 mm 3 m/s 762 mmHg 89%
    09:00 -3°C° 0 mm 4 m/s 762 mmHg 85%
    10:00 -3°C° 0 mm 4 m/s 761 mmHg 81%
    11:00 -2°C° 0 mm 4 m/s 761 mmHg 77%
    12:00 -2°C° 0 mm 4 m/s 761 mmHg 77%
    13:00 -1°C° 0 mm 4 m/s 760 mmHg 77%
    14:00 -1°C° 0 mm 4 m/s 760 mmHg 77%
    15:00 -1°C° 0 mm 4 m/s 760 mmHg 80%
    16:00 -2°C° 0 mm 4 m/s 760 mmHg 84%
    17:00 -2°C° 0 mm 4 m/s 760 mmHg 87%
    18:00 -1°C° 0 mm 3 m/s 761 mmHg 88%
    19:00 -1°C° 0 mm 3 m/s 761 mmHg 90%
    20:00 -1°C° 0 mm 3 m/s 761 mmHg 91%
    21:00 -1°C° 0 mm 3 m/s 761 mmHg 92%
    22:00 -1°C° 0 mm 2 m/s 761 mmHg 93%
    23:00 -1°C° 0 mm 2 m/s 761 mmHg 94%

    23 Novembre, Vendredi

    Heure Température Précipitation Vent Pression Humidité
    00:00 -2°C° 0 mm 2 m/s 762 mmHg 95%
    01:00 -2°C° 0 mm 2 m/s 762 mmHg 95%
    02:00 0°C° 0 mm 1 m/s 762 mmHg 96%
    03:00 0°C° 0 mm 1 m/s 762 mmHg 96%
    04:00 0°C° 0 mm 1 m/s 763 mmHg 96%
    05:00 -1°C° 0 mm 1 m/s 763 mmHg 96%
    06:00 -1°C° 0 mm 1 m/s 763 mmHg 96%
    07:00 -1°C° 0 mm 1 m/s 763 mmHg 96%
    08:00 -1°C° 0 mm 1 m/s 763 mmHg 96%
    09:00 0°C° 0 mm 1 m/s 763 mmHg 94%
    10:00 -1°C° 0 mm 2 m/s 763 mmHg 92%
    11:00 -1°C° 0 mm 2 m/s 763 mmHg 90%
    12:00 +1°C° 0 mm 2 m/s 763 mmHg 89%
    13:00 +1°C° 0 mm 2 m/s 763 mmHg 88%
    14:00 +1°C° 0 mm 2 m/s 763 mmHg 87%
    15:00 0°C° 0 mm 3 m/s 762 mmHg 88%
    16:00 -1°C° 0 mm 3 m/s 762 mmHg 89%
    17:00 -1°C° 0 mm 3 m/s 762 mmHg 90%
    18:00 -1°C° 0 mm 3 m/s 761 mmHg 88%
    19:00 -2°C° 0 mm 4 m/s 761 mmHg 87%
    20:00 -1°C° 0 mm 4 m/s 760 mmHg 86%
    21:00 -2°C° 0 mm 4 m/s 760 mmHg 85%
    22:00 -2°C° 0 mm 4 m/s 760 mmHg 85%
    23:00 -2°C° 0 mm 4 m/s 759 mmHg 84%

    24 Novembre, Samedi

    Heure Température Précipitation Vent Pression Humidité
    00:00 -2°C° 0 mm 4 m/s 759 mmHg 84%
    01:00 -2°C° 0 mm 4 m/s 759 mmHg 84%
    02:00 -2°C° 0 mm 4 m/s 758 mmHg 84%
    03:00 -2°C° 0 mm 4 m/s 758 mmHg 84%
    04:00 -2°C° 0 mm 4 m/s 757 mmHg 84%
    05:00 -2°C° 0 mm 4 m/s 757 mmHg 84%
    06:00 -2°C° 0 mm 4 m/s 756 mmHg 85%
    07:00 -2°C° 0 mm 4 m/s 756 mmHg 85%
    08:00 -2°C° 0 mm 4 m/s 755 mmHg 86%
    09:00 -1°C° 0 mm 3 m/s 755 mmHg 85%
    10:00 -1°C° 0 mm 3 m/s 755 mmHg 85%
    11:00 -1°C° 0 mm 3 m/s 755 mmHg 85%
    12:00 -1°C° 0 mm 3 m/s 755 mmHg 85%
    13:00 -1°C° 0 mm 3 m/s 755 mmHg 86%
    14:00 0°C° 0 mm 3 m/s 755 mmHg 86%
    15:00 -1°C° 0 mm 3 m/s 755 mmHg 88%
    16:00 -1°C° 0 mm 2 m/s 755 mmHg 89%
    17:00 -1°C° 0 mm 2 m/s 755 mmHg 91%
    18:00 -1°C° 0 mm 2 m/s 755 mmHg 92%
    19:00 -1°C° 0 mm 2 m/s 755 mmHg 92%
    20:00 -1°C° 0 mm 2 m/s 756 mmHg 93%
    21:00 -1°C° 0 mm 2 m/s 756 mmHg 93%
    22:00 +1°C° 0 mm 1 m/s 756 mmHg 93%
    23:00 +1°C° 0 mm 1 m/s 756 mmHg 93%

    25 Novembre, Dimanche

    Heure Température Précipitation Vent Pression Humidité
    00:00 +1°C° 0 mm 1 m/s 756 mmHg 92%
    01:00 +1°C° 0 mm 1 m/s 756 mmHg 92%
    02:00 0°C° 0 mm 1 m/s 757 mmHg 92%
    03:00 0°C° 0 mm 1 m/s 757 mmHg 92%
    04:00 -1°C° 0 mm 1 m/s 757 mmHg 92%
    05:00 -1°C° 0 mm 1 m/s 757 mmHg 92%
    06:00 -1°C° 0 mm 1 m/s 757 mmHg 92%
    07:00 -2°C° 0 mm 1 m/s 757 mmHg 92%
    08:00 -2°C° 0 mm 1 m/s 757 mmHg 91%
    09:00 -1°C° 0 mm 1 m/s 757 mmHg 88%
    10:00 -1°C° 0 mm 1 m/s 757 mmHg 85%
    11:00 0°C° 0 mm 1 m/s 758 mmHg 82%
    12:00 0°C° 0 mm 1 m/s 757 mmHg 81%
    13:00 0°C° 0 mm 1 m/s 757 mmHg 80%
    14:00 0°C° 0 mm 1 m/s 757 mmHg 79%
    15:00 0°C° 0 mm 1 m/s 757 mmHg 80%
    16:00 -1°C° 0 mm 1 m/s 757 mmHg 82%
    17:00 -2°C° 0 mm 1 m/s 757 mmHg 83%
    18:00 -3°C° 0 mm 0 m/s 757 mmHg 83%
    19:00 -3°C° 0 mm 0 m/s 757 mmHg 83%
    20:00 -3°C° 0 mm 0 m/s 757 mmHg 83%
    21:00 -3°C° 0 mm 0 m/s 757 mmHg 84%
    22:00 -4°C° 0 mm 0 m/s 757 mmHg 84%
    23:00 -4°C° 0 mm 0 m/s 756 mmHg 84%
    Voir plus